Tracking 19564 objects as of 20-Mar-2019
HD Live streaming from Space Station
objects crossing your sky now

FENGYUN 1C DEB

Track FENGYUN 1C DEB now!
10-day predictions


NORAD ID: 30404
Int'l Code: 1999-025ADT
Perigee: 858.4 km
Apogee: 1,444.2 km
Inclination: 99.7 °
Period: 108.2 minutes
Semi major axis: 7522 km
RCS: 0.0064 m2 (small)
Launch date: May 10, 1999
Source: People's Republic of China (PRC)
Launch site: Taiyaun Space Center, China (TSC)

Note: This is SATELLITE DEBRIS
aabbcc
Your satellite tracking list
Your tracking list is empty




NASA's NSSDC Master Catalog

Two Line Element Set (TLE):
1 30404U 99025ADT 19075.46889519  .00000049  00000-0  12899-3 0  9993
2 30404  99.6702 250.2801 0389365 301.2724  81.9205 13.30699539589664
Source of the keplerian elements: AFSPC